QPF
0.00 0.00 0.00 0.00 0.00 0.00 0.00 0.00 0.00 0.00 0.00 0.00 0.00 0.00 0.00 0.00 0.00 0.00 0.00 0.00 0.00 0.00 0.00 0.00 0.00 0.00 0.00 0.00 0.00 0.00 0.00 0.00 0.00 0.00 0.00 0.00 0.00 0.00 0.00 0.00 0.00 0.00 0.00 0.00
0.00 0.00 0.00 0.00 0.00 0.00 0.00 0.00 0.00 0.00 0.00 0.00 0.00 0.00 0.00 0.00 0.00 0.00 0.00 0.00 0.00 0.00 0.00 0.00 0.00 0.00 0.00 0.00 0.00 0.00 0.00 0.00 0.00 0.00 0.00 0.00 0.00 0.00 0.00 0.00 0.00 0.00 0.00 0.00
0.00 0.00 0.00 0.00 0.00 0.00 0.00 0.00 0.00 0.00 0.00 0.00 0.00 0.00 0.00 0.00 0.00 0.00 0.00 0.00 0.00 0.00 0.00 0.00 0.00 0.00 0.00 0.00 0.00 0.00 0.00 0.00 0.00 0.00 0.00 0.00 0.00 0.00 0.00 0.00 0.00 0.00 0.00 0.00
0.00 0.00 0.00 0.00 0.00 0.00 0.00 0.00 0.00 0.00 0.00 0.00 0.00 0.00 0.00 0.00 0.00 0.00 0.00 0.00 0.00 0.00 0.00 0.00 0.00 0.00 0.00 0.00 0.00 0.00 0.00 0.00 0.00 0.00 0.00 0.00 0.00 0.00 0.00 0.00 0.00 0.00 0.00 0.00
0.00 0.00 0.00 0.00 0.00 0.00 0.00 0.00 0.00 0.00 0.00 0.00 0.00 0.00 0.00 0.00 0.00 0.00 0.00 0.00 0.00 0.00 0.00 0.00 0.00 0.00 0.00 0.00 0.00 0.00 0.00 0.00 0.00 0.00 0.00 0.00 0.00 0.00 0.00 0.00 0.00 0.00 0.00 0.00
0.00 0.00 0.00 0.00 0.00 0.00 0.00 0.00 0.00 0.00 0.00 0.00 0.00 0.00 0.00 0.00 0.00 0.00 0.00 0.00 0.00 0.00 0.00 0.00 0.00 0.00 0.00 0.00 0.00 0.00 0.00 0.00 0.00 0.00 0.00 0.00 0.00 0.00 0.00 0.00 0.00 0.00 0.00 0.00
0.00 0.00 0.00 0.00 0.00 0.00 0.00 0.00 0.00 0.00 0.00 0.00 0.00 0.00 0.00 0.00 0.00 0.00 0.00 0.00 0.00 0.00 0.00 0.00 0.00 0.00 0.00 0.00 0.00 0.00 0.00 0.00 0.00 0.00 0.00 0.00 0.00 0.00 0.00 0.00 0.00 0.00 0.00 0.00
0.00 0.00 0.00 0.00 0.00 0.00 0.00 0.00 0.00 0.00 0.00 0.00 0.00 0.00 0.00 0.00 0.00 0.00 0.00 0.00 0.00 0.00 0.00 0.00 0.00 0.00 0.00 0.00 0.00 0.00 0.00 0.00 0.00 0.00 0.00 0.00 0.00 0.00 0.00 0.00 0.00 0.00 0.00 0.00
0.00 0.00 0.00 0.00 0.00 0.00 0.00 0.00 0.00 0.00 0.00 0.00 0.00 0.00 0.00 0.00 0.00 0.00 0.00 0.00 0.00 0.00 0.00 0.00 0.00 0.00 0.00 0.00 0.00 0.00 0.00 0.00 0.00 0.00 0.00 0.00 0.00 0.00 0.00 0.00 0.00 0.00 0.00 0.00
0.00 0.00 0.00 0.00 0.00 0.00 0.00 0.00 0.00 0.00 0.00 0.00 0.00 0.00 0.00 0.00 0.00 0.00 0.00 0.00 0.00 0.00 0.00 0.00 0.00 0.00 0.00 0.00 0.00 0.00 0.00 0.00 0.00 0.00 0.00 0.00 0.00 0.00 0.00 0.00 0.00 0.00 0.00 0.00
0.00 0.00 0.00 0.00 0.00 0.00 0.00 0.00 0.00 0.00 0.00 0.00 0.00 0.00 0.00 0.00 0.00 0.00 0.00 0.00 0.00 0.00 0.00 0.00 0.00 0.00 0.00 0.00 0.00 0.00 0.00 0.00 0.00 0.00 0.00 0.00 0.00 0.00 0.00 0.00 0.00 0.00 0.00 0.00
0.00 0.00 0.00 0.00 0.00 0.00 0.00 0.00 0.00 0.00 0.00 0.00 0.00 0.00 0.00 0.00 0.00 0.00 0.00 0.00 0.00 0.00 0.00 0.00 0.00 0.00 0.00 0.00 0.00 0.00 0.00 0.00 0.00 0.00 0.00 0.00 0.00 0.00 0.00 0.00 0.00 0.00 0.00 0.00
0.00 0.00 0.00 0.00 0.00 0.00 0.00 0.00 0.01 0.01 0.00 0.00 0.00 0.00 0.00 0.00 0.00 0.00 0.00 0.00 0.00 0.00 0.00 0.00 0.00 0.00 0.00 0.00 0.00 0.00 0.00 0.00 0.00 0.00 0.00 0.00 0.00 0.00 0.00 0.00 0.00 0.00 0.00 0.00
0.00 0.00 0.00 0.00 0.00 0.00 0.00 0.00 0.01 0.01 0.00 0.00 0.01 0.00 0.00 0.00 0.00 0.00 0.00 0.00 0.00 0.00 0.00 0.00 0.00 0.00 0.00 0.00 0.00 0.00 0.00 0.00 0.00 0.00 0.00 0.00 0.00 0.00 0.00 0.00 0.00 0.00 0.00 0.00
0.00 0.02 0.00 0.00 0.00 0.01 0.01 0.01 0.01 0.00 0.00 0.00 0.00 0.00 0.00 0.00 0.00 0.00 0.00 0.00 0.00 0.00 0.00 0.00 0.00 0.00 0.00 0.00 0.00 0.00 0.00 0.00 0.00 0.00 0.00 0.00 0.00 0.00 0.00 0.00 0.00 0.00 0.00 0.00
0.00 0.00 0.00 0.00 0.00 0.01 0.01 0.01 0.00 0.00 0.00 0.00 0.00 0.00 0.00 0.00 0.00 0.00 0.00 0.00 0.00 0.00 0.00 0.00 0.00 0.00 0.00 0.00 0.00 0.00 0.00 0.00 0.00 0.00 0.00 0.00 0.00 0.00 0.00 0.00 0.00 0.00 0.00 0.00
0.00 0.00 0.00 0.01 0.00 0.00 0.00 0.00 0.00 0.00 0.00 0.00 0.00 0.00 0.00 0.00 0.00 0.00 0.00 0.00 0.00 0.00 0.00 0.00 0.00 0.00 0.00 0.00 0.00 0.00 0.00 0.00 0.00 0.00 0.00 0.00 0.00 0.00 0.00 0.00 0.00 0.00 0.00 0.00
0.00 0.00 0.00 0.00 0.00 0.00 0.00 0.00 0.00 0.00 0.00 0.00 0.00 0.00 0.00 0.00 0.00 0.00 0.00 0.00 0.00 0.00 0.00 0.00 0.00 0.00 0.00 0.00 0.00 0.00 0.00 0.00 0.00 0.00 0.00 0.00 0.00 0.00 0.00 0.00 0.00 0.00 0.00 0.00
0.00 0.00 0.00 0.00 0.00 0.00 0.00 0.00 0.00 0.00 0.00 0.00 0.00 0.00 0.00 0.00 0.00 0.00 0.00 0.00 0.00 0.00 0.00 0.00 0.00 0.00 0.00 0.00 0.00 0.00 0.00 0.00 0.00 0.00 0.00 0.00 0.00 0.00 0.00 0.00 0.00 0.00 0.00 0.00
0.00 0.00 0.00 0.00 0.00 0.00 0.00 0.00 0.00 0.00 0.00 0.00 0.00 0.00 0.00 0.00 0.00 0.00 0.00 0.00 0.00 0.00 0.00 0.00 0.00 0.00 0.00 0.00 0.00 0.00 0.00 0.00 0.00 0.00 0.00 0.00 0.00 0.00 0.00 0.00 0.00 0.00 0.00 0.00
0.00 0.00 0.00 0.00 0.00 0.00 0.00 0.00 0.00 0.00 0.00 0.00 0.00 0.00 0.00 0.00 0.00 0.01 0.00 0.00 0.00 0.00 0.00 0.00 0.00 0.00 0.00 0.00 0.00 0.00 0.00 0.00 0.00 0.00 0.00 0.00 0.00 0.00 0.00 0.00 0.00 0.00 0.00 0.00
0.00 0.00 0.00 0.00 0.00 0.00 0.00 0.00 0.00 0.00 0.00 0.00 0.00 0.00 0.00 0.00 0.00 0.00 0.00 0.00 0.00 0.00 0.00 0.00 0.00 0.00 0.00 0.00 0.00 0.00 0.00 0.00 0.00 0.00 0.00 0.00 0.00 0.00 0.00 0.00 0.00 0.00 0.00 0.00
0.00 0.00 0.00 0.00 0.00 0.00 0.00 0.00 0.00 0.00 0.00 0.00 0.00 0.00 0.00 0.00 0.00 0.00 0.00 0.00 0.00 0.00 0.00 0.00 0.00 0.00 0.00 0.00 0.00 0.00 0.00 0.00 0.00 0.00 0.00 0.00 0.00 0.00 0.00 0.00 0.00 0.00 0.00 0.00
0.00 0.00 0.00 0.00 0.00 0.00 0.00 0.00 0.00 0.00 0.00 0.00 0.00 0.00 0.00 0.00 0.00 0.00 0.00 0.00 0.00 0.00 0.00 0.00 0.00 0.00 0.00 0.00 0.00 0.00 0.00 0.00 0.00 0.00 0.00 0.00 0.00 0.00 0.00 0.00 0.00 0.00 0.00 0.00
0.00 0.00 0.00 0.00 0.00 0.00 0.00 0.00 0.00 0.00 0.00 0.00 0.00 0.00 0.00 0.00 0.00 0.00 0.00 0.00 0.00 0.00 0.00 0.00 0.00 0.00 0.00 0.00 0.00 0.00 0.00 0.00 0.00 0.00 0.00 0.00 0.00 0.00 0.00 0.00 0.00 0.00 0.00 0.00
0.00 0.00 0.00 0.00 0.00 0.00 0.00 0.00 0.00 0.00 0.00 0.00 0.00 0.00 0.00 0.00 0.00 0.00 0.00 0.00 0.00 0.00 0.00 0.00 0.00 0.00 0.00 0.00 0.00 0.00 0.00 0.00 0.00 0.00 0.00 0.00 0.00 0.00 0.00 0.00 0.00 0.00 0.00 0.00
0.00 0.00 0.00 0.00 0.00 0.00 0.00 0.00 0.00 0.00 0.00 0.00 0.00 0.00 0.00 0.00 0.00 0.00 0.00 0.00 0.00 0.00 0.00 0.00 0.00 0.00 0.00 0.00 0.00 0.00 0.00 0.00 0.00 0.00 0.00 0.00 0.00 0.00 0.00 0.00 0.00 0.00 0.00 0.00
MSLP
1005.35 1006.76 1007.77 1009.16 1009.98 1011.30 1012.39 1011.69 1011.72 1010.43 1010.55 1011.67 1012.92 1013.00 1012.26 1011.51 1010.84 1010.39 1010.30 1010.44 1011.20 1011.95 1012.64 1013.25 1013.65 1013.86 1014.09 1014.28 1014.42 1014.73 1015.10 1015.54 1015.97 1015.94 1015.69 1015.73 1015.89 1016.61 1017.37 1018.49 1019.68 1019.91 1019.52 1017.70
1004.79 1005.84 1007.27 1008.77 1009.35 1010.13 1010.56 1011.07 1010.99 1010.32 1010.21 1011.71 1012.88 1012.65 1011.93 1011.13 1010.76 1010.31 1010.19 1010.62 1011.07 1011.97 1012.82 1013.63 1013.97 1014.13 1014.48 1014.56 1014.79 1015.07 1015.27 1016.15 1016.69 1016.71 1016.54 1016.23 1016.43 1017.01 1017.69 1018.35 1019.00 1019.32 1019.16 1017.64
1004.31 1005.31 1006.59 1008.00 1008.52 1008.99 1009.21 1010.25 1010.90 1011.26 1011.23 1011.75 1011.89 1012.30 1011.81 1011.17 1010.65 1010.39 1010.26 1010.85 1011.38 1012.25 1013.19 1013.70 1014.32 1014.65 1014.90 1015.02 1015.30 1015.49 1015.63 1016.70 1016.86 1017.01 1016.84 1016.82 1016.98 1017.16 1017.63 1017.80 1018.59 1018.72 1018.06 1017.31
1004.01 1005.06 1005.71 1007.00 1007.96 1008.46 1009.50 1009.63 1010.22 1010.35 1011.71 1012.26 1012.03 1011.80 1011.58 1011.24 1010.84 1010.43 1010.32 1011.03 1011.55 1012.08 1013.43 1014.12 1014.63 1015.01 1015.44 1015.72 1015.96 1016.33 1016.62 1017.45 1017.98 1018.11 1017.96 1017.58 1017.22 1017.19 1017.40 1017.55 1017.50 1017.65 1016.99 1017.00
1003.83 1004.48 1005.20 1006.32 1007.58 1008.60 1009.59 1009.35 1009.58 1010.67 1011.43 1011.53 1012.15 1012.03 1011.69 1011.26 1011.15 1010.95 1010.86 1011.26 1012.00 1012.39 1013.08 1013.52 1014.34 1014.85 1015.58 1015.75 1016.77 1017.23 1017.81 1018.71 1019.05 1019.20 1018.84 1018.32 1017.75 1017.27 1017.33 1017.35 1017.25 1017.03 1016.80 1016.39
1003.41 1004.31 1004.65 1005.90 1006.82 1007.42 1008.41 1008.57 1008.65 1009.05 1012.12 1012.26 1012.34 1012.25 1011.72 1011.32 1011.25 1011.44 1011.34 1011.64 1012.39 1013.13 1013.63 1013.93 1014.43 1014.98 1015.39 1015.93 1016.84 1018.03 1018.76 1019.32 1020.00 1020.01 1019.51 1018.82 1018.17 1016.44 1016.39 1016.49 1016.34 1016.14 1016.30 1015.57
1003.16 1003.59 1004.53 1005.28 1006.13 1006.34 1007.02 1007.28 1008.04 1009.70 1012.33 1012.40 1012.05 1011.86 1011.45 1011.35 1011.60 1011.77 1012.24 1012.42 1012.85 1014.14 1014.20 1014.56 1015.08 1015.80 1016.51 1017.03 1017.99 1018.38 1019.23 1019.86 1020.40 1020.76 1020.34 1018.94 1016.21 1015.90 1015.87 1015.86 1015.59 1015.59 1015.63 1015.77
1002.61 1003.24 1003.87 1004.91 1005.29 1006.17 1006.80 1006.79 1007.31 1009.16 1011.44 1011.59 1011.69 1011.74 1011.76 1011.92 1012.20 1012.64 1013.07 1013.50 1013.76 1014.13 1014.68 1015.76 1016.83 1017.49 1017.72 1018.50 1019.00 1019.14 1019.32 1020.07 1021.10 1021.33 1020.36 1018.36 1016.12 1015.95 1015.95 1015.73 1014.92 1014.72 1015.31 1015.82
1002.09 1002.93 1003.63 1004.22 1005.06 1005.92 1006.43 1006.61 1006.74 1008.21 1010.13 1010.90 1010.45 1011.36 1011.56 1012.07 1012.73 1013.48 1013.98 1014.37 1014.49 1014.91 1016.08 1016.86 1017.99 1018.42 1018.42 1018.96 1019.45 1019.74 1019.99 1020.08 1020.52 1021.59 1020.51 1018.61 1016.36 1015.61 1015.44 1015.46 1015.12 1014.56 1015.14 1016.03
1001.99 1002.52 1003.17 1003.87 1004.55 1005.45 1005.92 1006.53 1006.38 1007.48 1009.15 1009.48 1009.79 1010.18 1010.90 1011.54 1012.32 1013.35 1014.24 1014.78 1015.11 1015.47 1016.96 1018.12 1018.98 1018.97 1018.81 1019.09 1019.45 1020.05 1020.58 1021.03 1021.13 1021.24 1019.92 1017.96 1016.16 1015.82 1015.67 1015.70 1015.40 1014.91 1015.24 1015.79
1002.07 1002.38 1002.78 1003.34 1004.12 1004.95 1005.53 1006.52 1006.60 1006.84 1008.69 1009.43 1009.30 1009.35 1010.10 1010.87 1011.35 1012.57 1013.94 1014.76 1015.42 1016.34 1017.35 1018.60 1019.26 1019.35 1019.02 1019.20 1019.13 1019.33 1019.57 1020.19 1020.77 1020.92 1019.46 1017.51 1016.06 1016.11 1015.88 1014.99 1014.85 1014.97 1015.27 1015.45
1002.17 1002.30 1002.50 1002.99 1003.74 1004.58 1004.98 1006.33 1006.91 1006.85 1008.12 1009.51 1009.50 1009.43 1009.27 1009.42 1009.56 1010.96 1013.00 1013.13 1014.20 1015.02 1016.83 1018.68 1019.36 1019.72 1019.81 1019.86 1019.54 1019.05 1019.09 1018.52 1018.69 1018.88 1017.20 1016.01 1015.73 1015.20 1014.75 1014.92 1014.97 1014.93 1015.20 1015.30
1002.14 1002.08 1002.35 1002.75 1003.53 1004.41 1004.65 1006.26 1007.20 1007.58 1009.04 1009.95 1009.68 1009.83 1009.66 1009.29 1009.64 1009.70 1011.05 1013.35 1013.67 1014.74 1015.49 1017.64 1018.95 1019.56 1019.61 1019.75 1019.27 1018.76 1018.17 1017.95 1017.94 1017.79 1016.04 1015.55 1015.24 1014.82 1014.69 1014.60 1014.71 1014.65 1014.79 1015.03
1002.21 1002.32 1002.29 1002.80 1003.48 1003.95 1004.39 1005.85 1006.94 1007.55 1008.75 1010.26 1010.96 1010.35 1010.39 1010.11 1009.66 1009.78 1010.04 1011.15 1013.11 1014.65 1015.72 1017.25 1018.42 1019.00 1018.94 1019.14 1018.68 1018.40 1017.60 1017.52 1017.05 1016.64 1015.49 1014.92 1014.48 1014.33 1014.17 1014.15 1014.28 1014.47 1014.66 1014.94
1002.67 1002.72 1002.62 1002.95 1003.62 1003.97 1004.81 1006.18 1007.54 1007.44 1007.46 1010.17 1011.71 1011.37 1011.57 1011.09 1010.64 1010.63 1010.92 1011.53 1013.00 1014.73 1016.35 1017.38 1018.15 1018.26 1018.81 1019.39 1019.06 1017.79 1016.62 1015.95 1015.90 1015.07 1014.27 1014.54 1014.20 1013.84 1013.96 1014.12 1014.10 1014.20 1014.70 1015.15
1002.94 1002.93 1003.04 1003.21 1003.73 1004.21 1005.85 1007.76 1007.62 1007.35 1007.24 1009.08 1012.15 1012.92 1012.56 1012.15 1011.77 1011.76 1012.35 1012.78 1013.57 1014.62 1015.56 1016.81 1017.31 1017.46 1017.58 1018.66 1018.39 1015.89 1015.16 1014.78 1014.37 1014.31 1014.21 1014.23 1014.02 1014.07 1013.93 1014.23 1014.29 1014.40 1014.92 1015.54
1003.69 1003.69 1003.66 1003.98 1004.44 1005.54 1007.02 1007.92 1008.05 1007.46 1007.30 1009.12 1012.86 1013.58 1013.32 1013.10 1013.01 1013.58 1013.85 1013.92 1014.51 1014.95 1016.24 1017.00 1017.48 1017.70 1017.66 1018.19 1017.71 1015.82 1015.77 1015.26 1014.75 1014.56 1014.63 1014.51 1014.45 1014.62 1014.75 1014.90 1015.36 1015.65 1016.21 1016.83
1005.03 1005.09 1004.88 1004.78 1005.02 1006.14 1007.20 1007.76 1007.61 1007.60 1007.96 1009.70 1012.83 1014.35 1014.33 1013.94 1014.33 1014.93 1015.04 1015.11 1015.27 1016.01 1016.71 1017.40 1017.63 1018.15 1018.21 1018.36 1017.47 1017.11 1016.51 1015.76 1015.29 1015.26 1015.10 1015.28 1015.62 1015.89 1016.20 1016.49 1016.75 1017.18 1018.06 1018.89
1005.45 1005.37 1005.21 1005.42 1006.58 1008.20 1008.76 1008.22 1007.90 1007.71 1008.86 1011.20 1013.13 1014.29 1014.84 1014.61 1015.31 1015.59 1015.79 1015.74 1016.40 1016.86 1016.89 1017.28 1017.53 1018.36 1018.72 1018.98 1018.65 1018.12 1017.68 1017.28 1016.56 1016.45 1016.33 1016.51 1016.83 1017.07 1017.68 1018.04 1018.52 1018.93 1019.73 1020.03
1005.69 1005.82 1006.76 1008.49 1009.33 1009.19 1008.79 1008.75 1008.95 1009.68 1011.55 1012.62 1014.18 1014.89 1015.10 1015.17 1015.61 1016.13 1016.43 1016.51 1016.84 1016.95 1017.14 1017.15 1017.56 1018.32 1019.16 1019.39 1019.33 1019.05 1018.51 1017.73 1016.84 1017.04 1017.56 1018.03 1018.50 1018.73 1019.21 1019.69 1020.15 1020.41 1020.88 1021.04
1006.71 1008.12 1009.42 1009.68 1009.31 1009.33 1010.27 1011.61 1012.18 1013.16 1014.06 1014.40 1014.97 1015.11 1015.18 1015.41 1015.70 1016.15 1016.70 1016.93 1017.10 1017.23 1017.30 1017.51 1017.86 1018.91 1019.60 1019.82 1019.77 1019.67 1019.46 1019.02 1018.68 1018.61 1018.87 1019.20 1019.64 1020.02 1020.43 1020.85 1021.02 1021.16 1021.19 1021.17
1008.66 1008.79 1009.58 1009.91 1010.60 1011.51 1012.50 1014.10 1014.48 1014.59 1015.31 1015.41 1015.38 1015.55 1015.58 1015.81 1015.73 1016.15 1016.91 1016.97 1017.25 1017.26 1017.41 1017.80 1018.33 1019.47 1019.80 1020.03 1020.15 1020.23 1020.11 1019.91 1019.78 1019.80 1019.94 1020.30 1020.55 1020.71 1020.87 1021.04 1021.11 1021.30 1021.43 1021.55
1008.73 1009.42 1011.00 1011.61 1012.99 1013.67 1014.41 1015.16 1015.51 1015.84 1015.88 1015.98 1015.98 1016.23 1016.28 1016.21 1016.24 1016.61 1016.85 1017.19 1017.48 1017.45 1017.75 1018.15 1018.98 1019.67 1020.11 1020.42 1020.58 1020.66 1020.55 1020.44 1020.43 1020.57 1020.71 1020.90 1021.10 1021.26 1021.45 1021.62 1021.76 1021.89 1021.88 1021.86
1011.00 1012.08 1013.35 1013.92 1014.63 1015.12 1015.29 1015.55 1015.80 1016.35 1016.42 1016.43 1016.38 1016.66 1016.70 1016.78 1016.78 1017.11 1017.24 1017.65 1017.68 1017.85 1018.17 1018.75 1019.52 1019.90 1020.48 1020.67 1020.85 1020.80 1021.02 1021.13 1021.18 1021.38 1021.65 1021.83 1021.92 1022.04 1022.16 1022.17 1022.13 1022.19 1022.15 1022.11
1013.12 1013.56 1014.98 1015.49 1015.98 1016.08 1016.29 1016.41 1016.60 1016.84 1016.87 1016.89 1016.90 1017.10 1017.11 1017.32 1017.48 1017.70 1017.83 1018.08 1018.22 1018.46 1018.80 1019.20 1019.88 1020.54 1020.64 1020.87 1020.93 1021.09 1021.33 1021.66 1021.60 1021.63 1021.84 1022.15 1022.47 1022.72 1022.82 1022.78 1022.59 1022.53 1022.49 1022.30
1014.80 1015.64 1016.15 1016.41 1016.42 1016.76 1016.90 1017.01 1017.15 1017.08 1017.11 1017.15 1017.24 1017.55 1017.67 1017.99 1018.03 1018.24 1018.27 1018.40 1018.64 1019.06 1019.20 1019.69 1020.27 1020.60 1020.76 1020.73 1020.91 1021.26 1021.46 1021.72 1021.81 1022.00 1022.32 1022.66 1022.93 1023.19 1023.27 1023.20 1023.20 1023.11 1023.00 1022.82
1016.17 1016.94 1016.94 1016.96 1017.06 1017.34 1017.52 1017.55 1017.75 1017.60 1017.77 1018.08 1018.12 1018.28 1018.56 1018.65 1018.72 1018.87 1018.74 1018.81 1018.97 1019.24 1019.65 1019.98 1020.36 1020.57 1020.74 1020.82 1021.02 1021.27 1021.56 1021.93 1022.23 1022.57 1022.91 1023.30 1023.61 1023.81 1023.72 1023.82 1023.82 1023.56 1023.41 1023.09
Thickness
5548 5550 5557 5557 5563 5562 5564 5576 5581 5604 5608 5595 5583 5594 5606 5623 5630 5639 5640 5640 5633 5626 5624 5619 5617 5620 5624 5624 5627 5625 5621 5612 5607 5617 5623 5625 5627 5620 5614 5605 5596 5576 5584 5620
5541 5549 5549 5550 5560 5566 5573 5576 5586 5599 5607 5581 5570 5597 5614 5626 5629 5637 5640 5636 5635 5628 5619 5614 5614 5616 5619 5622 5623 5620 5621 5608 5599 5610 5619 5622 5623 5615 5605 5597 5589 5587 5596 5620
5538 5545 5547 5548 5559 5568 5576 5577 5578 5584 5587 5588 5598 5602 5610 5620 5630 5635 5639 5632 5630 5622 5616 5612 5608 5610 5615 5618 5616 5611 5619 5605 5610 5610 5614 5613 5613 5612 5607 5612 5600 5595 5602 5619
5532 5541 5549 5549 5555 5564 5564 5573 5579 5592 5575 5582 5596 5606 5610 5615 5621 5635 5639 5632 5630 5623 5610 5608 5604 5608 5608 5610 5609 5609 5614 5608 5601 5596 5597 5605 5612 5611 5608 5611 5610 5609 5615 5608
5529 5541 5547 5550 5551 5555 5557 5572 5579 5575 5581 5591 5594 5595 5606 5613 5621 5627 5631 5628 5625 5627 5615 5619 5607 5610 5607 5612 5605 5603 5598 5595 5592 5593 5591 5594 5604 5609 5607 5603 5604 5604 5602 5612
5531 5537 5550 5550 5553 5561 5563 5571 5584 5591 5555 5578 5587 5589 5603 5614 5621 5622 5627 5628 5622 5620 5618 5615 5610 5607 5606 5609 5607 5595 5591 5581 5590 5590 5576 5584 5592 5611 5612 5607 5607 5612 5602 5622
5533 5544 5548 5552 5556 5566 5573 5582 5585 5577 5554 5569 5587 5597 5610 5614 5617 5619 5618 5622 5622 5611 5612 5610 5609 5602 5597 5598 5588 5590 5574 5575 5563 5582 5558 5583 5621 5613 5612 5609 5608 5607 5606 5603
5539 5546 5552 5554 5562 5564 5572 5581 5587 5577 5546 5575 5588 5594 5600 5603 5605 5608 5610 5610 5611 5610 5608 5597 5594 5584 5587 5578 5576 5579 5581 5569 5554 5577 5576 5588 5613 5604 5602 5600 5612 5609 5602 5595
5546 5549 5554 5559 5562 5564 5571 5578 5586 5585 5570 5578 5598 5594 5599 5594 5595 5596 5599 5601 5602 5600 5579 5584 5582 5584 5589 5587 5583 5572 5568 5557 5576 5545 5571 5575 5598 5599 5598 5598 5590 5602 5593 5581
5547 5553 5557 5561 5565 5566 5572 5577 5587 5589 5582 5592 5597 5598 5599 5601 5598 5593 5593 5595 5597 5595 5571 5568 5578 5584 5577 5585 5574 5557 5556 5540 5561 5520 5564 5571 5587 5588 5586 5577 5583 5583 5579 5573
5547 5555 5561 5565 5567 5569 5572 5574 5583 5591 5583 5589 5600 5604 5602 5602 5603 5598 5594 5591 5588 5575 5576 5572 5568 5569 5573 5574 5575 5564 5572 5560 5549 5516 5541 5564 5576 5576 5570 5580 5574 5572 5567 5564
5548 5556 5563 5567 5569 5570 5576 5576 5580 5589 5589 5589 5594 5601 5608 5614 5615 5604 5589 5604 5595 5593 5574 5553 5546 5553 5544 5545 5573 5560 5566 5571 5567 5561 5569 5573 5569 5571 5571 5566 5565 5564 5557 5554
5550 5558 5563 5569 5570 5571 5580 5575 5577 5582 5576 5581 5591 5594 5600 5608 5609 5613 5602 5586 5594 5587 5579 5557 5547 5558 5541 5552 5552 5554 5560 5554 5557 5557 5572 5562 5560 5562 5561 5559 5556 5554 5550 5547
5551 5557 5565 5568 5570 5575 5580 5579 5578 5581 5575 5560 5574 5585 5589 5595 5602 5607 5610 5602 5584 5573 5569 5552 5545 5553 5542 5537 5550 5545 5556 5549 5549 5546 5557 5557 5561 5558 5558 5555 5548 5544 5540 5535
5549 5556 5563 5568 5570 5577 5576 5572 5570 5578 5591 5562 5558 5572 5574 5581 5590 5593 5594 5594 5584 5571 5559 5546 5552 5534 5533 5520 5521 5534 5549 5552 5544 5547 5562 5556 5556 5556 5551 5548 5547 5542 5533 5523
5549 5555 5561 5568 5571 5575 5569 5563 5568 5575 5582 5572 5554 5550 5559 5567 5575 5578 5575 5574 5568 5564 5564 5543 5540 5538 5541 5525 5532 5558 5555 5551 5554 5555 5550 5546 5546 5542 5541 5538 5535 5528 5518 5507
5544 5549 5556 5562 5565 5563 5559 5563 5565 5571 5578 5563 5539 5539 5549 5551 5556 5552 5554 5556 5552 5554 5538 5529 5526 5527 5528 5512 5529 5552 5542 5543 5542 5539 5536 5537 5534 5533 5521 5516 5506 5500 5492 5482
5536 5542 5550 5556 5560 5556 5554 5554 5561 5566 5567 5555 5531 5524 5534 5539 5538 5536 5534 5536 5539 5532 5525 5516 5518 5513 5513 5521 5524 5519 5523 5526 5527 5523 5522 5519 5506 5500 5494 5489 5484 5475 5464 5453
5533 5539 5546 5550 5546 5539 5540 5547 5555 5560 5557 5531 5520 5532 5534 5525 5520 5517 5523 5524 5521 5514 5518 5515 5519 5503 5511 5496 5494 5498 5497 5498 5505 5500 5496 5491 5485 5480 5472 5465 5455 5446 5436 5431
5532 5536 5531 5517 5522 5528 5537 5539 5535 5531 5524 5524 5511 5512 5519 5524 5510 5509 5509 5505 5504 5513 5509 5503 5504 5501 5481 5477 5476 5476 5477 5481 5492 5490 5476 5465 5458 5452 5446 5439 5432 5424 5415 5410
5522 5514 5510 5514 5521 5525 5513 5505 5507 5508 5506 5507 5504 5504 5514 5509 5514 5508 5493 5494 5490 5503 5501 5501 5498 5485 5469 5464 5462 5461 5460 5461 5461 5459 5453 5448 5439 5432 5425 5417 5411 5406 5402 5398
5507 5511 5508 5509 5505 5500 5498 5486 5488 5490 5498 5492 5500 5498 5500 5493 5497 5496 5485 5494 5482 5498 5478 5483 5486 5457 5455 5453 5448 5445 5444 5443 5441 5438 5433 5427 5421 5416 5410 5404 5399 5390 5384 5376
5503 5499 5491 5497 5482 5483 5476 5491 5491 5490 5480 5480 5481 5486 5478 5481 5480 5476 5479 5485 5485 5465 5473 5475 5455 5447 5441 5436 5434 5429 5428 5427 5425 5420 5415 5408 5401 5392 5385 5381 5373 5367 5364 5360
5474 5475 5473 5469 5476 5465 5469 5475 5475 5464 5463 5465 5467 5467 5470 5462 5469 5461 5478 5456 5454 5467 5469 5457 5436 5434 5423 5424 5418 5416 5411 5401 5399 5395 5386 5379 5374 5369 5365 5361 5356 5351 5350 5344
5457 5459 5448 5446 5440 5444 5446 5446 5450 5448 5449 5453 5457 5455 5458 5453 5455 5446 5448 5448 5447 5439 5440 5435 5420 5411 5412 5407 5403 5397 5391 5379 5380 5380 5371 5362 5355 5348 5346 5340 5337 5334 5330 5326
5437 5432 5434 5430 5439 5438 5437 5438 5440 5440 5439 5439 5442 5444 5447 5441 5441 5442 5438 5438 5428 5427 5420 5412 5404 5399 5395 5395 5390 5383 5378 5372 5369 5362 5354 5347 5340 5334 5329 5325 5320 5315 5311 5307
5424 5421 5418 5422 5426 5426 5425 5425 5426 5425 5428 5433 5429 5436 5430 5423 5422 5424 5425 5422 5417 5409 5402 5399 5394 5389 5385 5381 5376 5367 5363 5358 5351 5344 5338 5330 5321 5315 5313 5308 5302 5299 5295 5293